Location: Bun Machan
(52.1403°N, 7.3744°W)
Time: 19:05:12
(UTC+00:00)

MOZ.5/SAFIR/RUBIN 5/SL-8 - Pass Details

Date: 14 July 2020
Orbit: 677 x 706 km, 98.1° (Epoch: 12 August)

Event Time Altitude Azimuth Distance (km) Brightness Sun altitude
Exits shadow 02:04:31 19° 180° (S) 1,647 5.2 -13.7°
Maximum altitude 02:07:53 63° 258° (WSW) 787 3.9 -13.5°
Drops below altitude 10° 02:12:40 10° 340° (NNW) 2,189 7.1 -13.2°
Sets 02:14:58 0° 344° (NNW) 3,114 8.0 -13.1°
